Vorticity
nan nan nan nan nan nan nan nan nan nan nan nan nan nan nan nan nan nan nan nan nan nan nan nan nan nan nan nan nan nan nan nan nan nan nan nan nan nan nan nan nan nan nan nan nan nan nan nan nan
nan 10 8 6 5 6 6 7 4 8 9 8 5 7 4 11 17 10 9 8 5 5 4 6 8 7 7 6 6 6 6 5 6 5 4 5 6 6 5 4 5 5 4 6 8 9 6 6 nan
nan 8 4 10 14 6 10 6 7 10 6 1 -1 4 10 5 -0 8 14 6 4 4 6 8 7 7 8 7 6 6 6 5 5 5 5 5 5 4 4 5 5 4 5 6 6 7 6 7 nan
nan 8 10 7 12 9 10 10 8 5 6 8 3 -3 10 10 16 17 8 3 4 4 6 7 6 6 6 7 6 6 6 5 6 6 5 4 5 5 5 3 4 5 6 6 7 6 6 6 nan
nan 8 10 9 5 8 6 6 5 3 8 6 7 8 4 10 14 8 6 7 3 4 6 6 7 5 6 6 7 7 6 6 5 5 5 4 5 5 6 6 5 6 6 6 7 8 7 6 nan
nan 9 2 8 2 3 6 7 10 6 4 3 6 5 3 7 1 10 8 6 6 8 6 6 5 5 6 6 6 6 5 5 5 5 4 5 5 6 5 6 6 7 6 4 6 8 8 9 nan
nan 4 2 9 9 5 5 7 7 11 4 9 5 1 7 6 7 11 6 5 6 4 5 5 5 7 5 3 5 5 5 5 5 5 5 6 5 4 4 5 5 5 5 5 5 6 8 9 nan
nan 1 4 14 4 9 10 13 3 4 11 14 1 4 11 8 8 6 6 5 6 5 5 5 5 4 4 7 6 4 5 6 5 5 5 5 6 5 4 4 5 5 5 6 6 6 7 8 nan
nan 6 11 7 5 7 10 6 -0 3 3 7 20 18 10 7 6 3 7 5 5 7 6 5 5 5 6 7 8 7 6 5 4 5 5 3 5 8 8 6 4 5 5 6 6 6 6 8 nan
nan 8 8 2 11 10 11 8 1 3 0 5 15 12 9 4 4 4 3 6 8 7 5 7 6 5 6 6 6 6 6 6 7 7 7 6 6 8 10 11 10 7 5 6 7 8 7 4 nan
nan 2 6 10 4 11 11 4 10 5 3 13 9 4 4 4 3 3 5 5 6 7 6 7 5 7 6 5 6 6 7 7 8 8 7 7 6 9 9 8 12 12 8 5 9 6 7 7 nan
nan 5 8 7 6 6 14 8 10 8 13 13 6 6 4 6 5 4 6 4 8 7 8 7 5 5 5 6 7 7 7 6 7 10 7 5 7 9 9 10 9 6 9 8 8 8 8 7 nan
nan 9 9 7 4 5 3 10 16 11 15 11 9 6 3 5 6 7 11 8 5 5 6 7 8 7 6 6 7 7 6 6 9 9 6 6 7 7 8 7 7 10 10 8 9 9 7 8 nan
nan 6 4 9 9 7 6 10 9 14 16 9 5 5 5 6 6 6 10 12 9 5 6 6 6 7 8 7 8 7 6 7 10 9 8 6 6 8 8 6 5 5 7 12 9 7 6 7 nan
nan 7 11 7 9 8 4 4 7 9 13 8 5 3 7 7 7 7 7 12 11 7 10 9 10 7 9 12 8 8 7 8 7 8 11 8 7 8 7 6 6 7 8 8 6 6 5 7 nan
nan 5 10 17 14 3 4 5 5 8 8 8 8 5 7 8 8 8 8 8 10 9 11 8 11 10 7 7 8 8 8 15 10 9 11 10 7 6 6 6 7 7 9 6 6 7 8 7 nan
nan 13 6 17 11 8 4 9 9 10 9 7 7 9 8 7 7 9 8 8 7 7 8 10 8 1 2 6 5 5 9 9 9 13 11 12 9 7 7 7 7 8 7 7 7 7 8 9 nan
nan 8 12 13 10 5 5 13 13 14 11 5 6 10 8 7 8 10 9 9 8 12 5 5 7 1 4 7 6 8 10 5 12 14 9 10 8 7 7 8 8 8 8 8 7 8 7 9 nan
nan 7 10 8 12 8 8 11 12 13 8 7 6 8 9 6 7 8 8 9 12 12 3 5 7 7 2 6 12 8 8 5 10 11 11 10 9 6 6 7 8 10 10 9 8 7 8 5 nan
nan 8 7 12 10 4 6 5 12 13 11 11 5 5 6 6 10 8 5 6 8 8 8 9 8 9 6 8 8 10 9 8 9 9 9 7 8 8 9 8 8 8 8 9 11 9 8 9 nan
nan 6 9 9 5 10 11 8 12 9 16 14 8 6 7 9 7 6 7 6 7 9 10 10 9 7 9 6 5 6 5 11 11 8 9 8 7 8 9 9 11 10 8 8 10 12 9 8 nan
nan 8 11 10 8 11 5 14 13 18 10 12 13 6 7 9 8 7 6 8 8 10 11 9 9 8 8 2 4 7 3 9 12 10 9 8 10 10 9 11 11 11 10 9 8 9 9 9 nan
nan 7 9 9 8 8 6 15 11 8 12 8 12 10 10 11 9 6 7 8 8 8 8 12 12 9 7 6 7 8 9 9 9 7 8 12 12 8 9 10 10 11 10 10 9 8 9 7 nan
nan 10 9 12 11 6 11 6 10 6 8 8 6 16 18 10 7 7 9 8 7 7 8 9 9 10 13 12 10 9 11 9 8 9 9 11 9 5 5 8 9 11 11 10 10 11 11 9 nan
nan 6 9 10 15 9 7 11 17 13 11 14 13 15 11 9 8 9 8 6 9 9 9 8 8 8 9 10 11 8 9 8 7 9 9 9 9 7 7 8 11 12 14 14 12 11 11 11 nan
nan 7 2 7 8 9 11 9 8 11 8 15 18 13 9 7 9 8 5 7 9 9 8 8 8 8 8 8 7 6 9 11 7 10 11 7 7 7 8 10 11 12 13 13 13 12 12 13 nan
nan 12 8 4 5 12 10 9 5 5 10 9 9 11 9 8 9 7 6 7 7 9 9 7 7 7 8 8 7 7 9 9 10 9 9 9 7 9 9 11 10 11 12 12 11 11 11 15 nan
nan 1 7 14 14 6 10 11 7 6 6 6 18 10 10 10 10 9 8 6 9 9 9 10 7 7 8 7 7 8 8 7 9 9 7 7 9 10 11 11 10 9 10 11 12 12 12 14 nan
nan 9 10 14 6 8 10 11 14 13 4 2 21 12 12 12 9 9 10 8 9 9 10 10 6 10 8 8 8 9 8 8 10 9 8 7 9 9 11 9 9 9 10 11 11 10 11 12 nan
nan nan nan nan nan nan nan nan nan nan nan nan nan nan nan nan nan nan nan nan nan nan nan nan nan nan nan nan nan nan nan nan nan nan nan nan nan nan nan nan nan nan nan nan nan nan nan nan nan
CAPE
78 11 792 1923 1130 0 0 0 0 0 0 0 27 111 257 152 36 532 943 952 960 1318 2080 2439 3233 3597 3660 3465 3350 3210 2947 2511 2671 2984 2882 2656 2998 2546 2249 2178 2106 1986 1845 1645 1640 1776 1609 1490 1435
4 277 1132 863 233 0 0 0 0 0 0 20 16 68 364 437 798 966 804 901 983 1074 1811 2554 3207 3521 3647 3486 3363 3306 3052 2556 2733 2770 2752 3053 2881 2548 2294 2033 1969 2099 2056 1975 1770 1834 1742 1570 1593
10 293 1056 476 3 0 0 0 0 1 6 69 81 343 314 350 574 592 747 882 776 1082 2001 2568 3508 3583 3551 3589 3430 3352 3263 3165 2930 2798 2710 2777 2596 2468 2143 2034 2085 2068 1880 1913 1871 2013 1753 1541 1648
1 15 309 344 0 0 2 0 0 56 54 20 86 316 693 534 509 704 953 875 1024 1479 2307 3142 3310 3044 3361 3624 3554 3437 3367 3383 3227 2808 2759 2817 2401 2323 2444 2193 2017 1872 1792 1903 1896 1890 1858 1626 1560
72 188 59 21 5 1 10 0 4 11 225 297 431 638 659 500 568 715 771 1019 1431 1489 2104 2590 3231 3335 3451 3617 3613 3542 3502 3452 3262 2827 2571 2486 2637 2624 2471 2148 1903 1762 1636 1829 1799 1758 1841 1588 1568
21 26 86 49 0 71 20 3 13 1 569 559 638 624 560 443 411 550 1191 1497 1291 1292 1737 1987 2834 3069 3036 2904 2908 2982 2913 2828 2708 2630 2636 2605 2764 2801 2744 2064 1947 1793 1538 1795 1326 1621 1673 1378 1391
4 56 44 108 43 149 71 14 6 0 670 664 696 654 524 486 473 1154 1376 941 930 1001 1294 1840 2055 1958 2265 2490 2463 2556 2499 2477 2878 2878 3159 2750 2590 2424 2682 2807 2571 1882 1643 1611 571 1352 1622 1462 1370
4 107 0 79 35 34 175 25 36 55 184 883 753 670 668 639 724 1246 1418 979 761 1042 1160 1359 1547 1670 1888 2126 2806 2917 2910 2740 2464 2559 2543 2516 2450 2415 2168 2794 2681 1912 1711 1568 1465 1273 1591 2191 588
55 1 1 85 92 17 18 114 233 612 827 1214 1049 934 733 921 802 871 1237 1185 1083 1116 1058 1226 1353 1466 1504 1724 2130 2900 2477 2250 2265 2102 2118 2430 1984 1974 2185 2088 2234 2075 1895 1644 1458 1776 2063 2005 1324
67 21 47 20 0 0 0 149 95 493 136 755 1223 1035 876 925 1151 1054 1148 1272 1252 1204 1169 1310 1355 1457 1802 2084 1936 1954 1734 1644 1641 1761 1588 1591 1392 1410 1837 1869 2245 2195 1940 1790 2006 2414 1971 1608 1126
0 0 6 5 0 0 1 238 330 375 183 217 1245 1104 1026 820 1198 1110 967 1135 1255 1317 1396 1487 1570 1631 1842 1940 1956 1870 1780 1773 1844 1811 1903 1716 1594 1688 1604 1506 1638 1579 2015 1378 2012 1903 1492 1231 454
4 0 1 0 0 0 0 135 246 342 235 172 1196 1127 1142 1018 1048 890 931 1023 1239 1464 1438 1625 1628 1841 1919 1932 1928 1727 1897 1772 1684 1653 1904 1425 1398 1161 1312 1078 1200 1183 1110 1157 1287 1074 1046 885 408
12 8 0 0 0 0 0 20 640 655 518 554 1289 1275 1248 1094 914 902 995 1167 1266 1420 1644 1787 2156 1843 1886 1810 1602 1609 1628 1497 1520 1441 1403 1480 1098 1475 1251 663 395 1019 1215 1097 843 642 668 528 591
0 0 0 0 0 0 55 75 128 527 918 1396 1309 1293 1267 1307 1159 947 1057 1251 1495 1331 1558 1876 1996 1848 1917 1573 1325 1335 1435 1322 1433 1302 1298 1398 1213 1045 1201 498 167 144 608 639 180 355 92 280 366
0 0 0 0 0 10 39 1 408 355 1188 1578 1510 1394 1286 1405 1283 993 1107 1012 1550 1504 1495 1768 1648 1689 1281 1136 1260 1223 1104 1717 792 923 773 1469 1396 1154 1366 823 196 20 0 128 7 1 2 64 442
0 0 0 0 0 5 23 116 2 240 753 1112 1699 1688 1568 1396 1286 1176 1170 946 1471 1272 1595 1545 663 7 0 0 0 0 20 476 1113 990 1503 1633 1480 1287 1233 1212 458 111 10 49 0 1 0 0 35
0 0 0 27 0 0 0 139 35 1 985 1118 1418 1638 1604 1552 1305 1473 1656 1178 1654 1634 929 217 86 119 9 7 0 0 0 0 696 1052 1510 1588 1671 1451 1069 1109 1240 868 87 0 26 29 0 0 37
0 0 0 12 6 0 1 14 290 238 1086 1278 1359 1759 1670 1659 1789 1805 1637 1599 1457 2389 369 218 158 5 0 1 0 0 0 26 218 1391 1198 1544 1605 1242 733 1162 1118 832 536 312 86 384 122 128 161
0 0 0 0 0 0 0 0 231 274 1178 1381 1613 1912 1908 1643 1791 1942 2013 2194 2552 2450 628 711 234 1 0 0 0 0 34 68 492 1947 1743 1423 1021 989 1170 927 650 473 531 559 464 282 223 121 21
0 0 0 0 0 0 0 0 0 300 439 1525 1839 2008 2179 2179 2146 2068 2022 1897 2001 2399 1196 713 101 1 0 0 26 13 36 156 247 1349 1330 1584 1545 1167 1050 856 693 486 419 399 368 463 105 171 0
0 0 0 0 0 0 0 0 0 3 250 1672 1979 2119 2158 2243 2250 2310 2287 2095 1877 2115 1281 434 7 0 0 0 0 0 0 25 461 1197 1166 1480 916 728 636 521 377 541 505 485 308 246 79 121 36
0 0 0 0 0 0 0 0 0 5 189 177 2070 2184 2190 2064 2375 2232 2111 1794 1656 2392 2413 774 239 106 51 109 41 0 0 181 700 957 765 608 622 608 601 470 502 417 535 388 485 307 212 117 110
0 0 0 0 0 0 0 0 1 11 174 298 488 2107 2097 2226 2283 2140 1844 1821 1797 2379 2316 2343 1729 849 177 304 530 210 364 1235 848 498 592 293 581 375 602 648 445 583 614 606 429 409 288 189 65
0 0 0 0 0 0 0 10 0 0 101 217 17 43 2060 2439 2260 2012 1993 1884 1869 1967 2264 2396 2133 2095 1634 1194 1223 1296 1184 778 510 631 352 431 498 488 352 244 509 612 558 625 480 324 274 200 175
0 0 0 1 0 9 0 6 1 1 78 273 282 1385 1998 2467 2247 1807 1985 1914 1894 1846 2106 2312 2060 2201 2128 1380 1536 1170 944 1003 615 440 487 244 180 138 22 58 270 516 591 500 658 468 331 175 212
0 0 0 8 1 40 85 12 43 0 0 88 358 1011 1952 1834 1787 1460 1461 1572 1468 1556 1825 2179 1936 2107 1897 1431 1160 1184 873 708 603 381 338 25 2 3 63 79 303 320 346 450 464 445 414 233 128
0 0 0 0 0 0 20 102 151 56 18 143 384 823 1879 1801 1666 1404 1348 1466 1362 1401 1994 2072 2221 1555 1627 1348 1080 983 898 548 364 337 183 0 1 115 176 93 189 166 460 124 32 100 144 242 212
0 0 0 0 0 2 9 200 69 15 69 198 407 936 1718 1781 1655 1622 1487 1400 1321 1292 1573 2229 2202 1562 1556 1154 1022 860 679 523 363 288 29 0 4 58 65 0 0 0 0 2 44 106 175 197 137
0 0 0 0 0 1 2 232 208 24 47 132 227 1222 1699 1608 1557 1542 1474 1180 1024 1042 1147 2106 1835 1722 1247 992 905 868 614 347 322 237 13 12 29 19 0 5 7 2 0 0 0 0 0 0 0
0 0 10 0 0 8 3 106 144 78 169 139 629 189 428 1181 1302 1670 1437 1017 1027 1027 1778 947 1085 1362 1175 986 779 743 611 333 208 123 144 20 42 0 0 3 8 0 0 0 0 0 0 0 1